Location: Del Oro Observatory
(38.3044°N, 104.8119°W)
Time: 10:39:39
(UTC-07:00)

Cosmos 1602 Rocket - Visible Passes

Search period start: 03 December 2016 00:00
Search period end: 13 December 2016 00:00
Orbit: 605 x 633 km, 82.5° (Epoch: 02 December)

Date Brightness Start Highest point End Pass type
(mag) Time Alt. Az. Time Alt. Az. Time Alt. Az.
04 Dec 6.4 06:03:45 10° NE 06:06:08 14° ENE 06:08:31 10° ESE visible
05 Dec 5.9 06:19:56 10° NNE 06:23:41 25° ENE 06:27:23 10° SE visible
08 Dec 6.4 05:35:03 10° NE 05:37:34 15° ENE 05:40:05 10° ESE visible
09 Dec 5.8 05:51:18 10° NNE 05:55:06 27° ENE 05:58:52 10° SE visible
10 Dec 4.6 06:08:10 10° N 06:12:32 50° E 06:16:50 10° SSE visible
11 Dec 3.6 06:25:21 10° N 06:29:51 83° W 06:34:16 10° S visible
11 Dec 5.6 18:54:41 10° S 18:55:47 17° S 18:55:47 17° S visible
12 Dec 6.4 05:06:21 10° NE 05:09:00 15° ENE 05:11:39 10° ESE visible
12 Dec 5.2 19:11:59 10° SSW 19:14:08 28° SSW 19:14:08 28° SSW visible
